Dewpoint
70 69 70 68 59 57 52 51 50 50 52 54 54 56 57 59 58 56 65 68 63 67 70 69 72 72 72 74 74 73 73 73 73 73 72 72 72 71 71 72 72 72 71 71 71 70 70 70 70
67 68 68 64 57 51 50 51 52 52 54 55 55 55 55 58 62 65 65 61 66 69 66 66 73 73 73 74 74 73 73 73 73 72 73 72 72 71 71 72 71 71 71 71 70 70 70 69 69
67 66 63 59 55 51 49 51 51 53 54 55 56 58 59 60 62 65 65 66 67 68 67 69 73 73 74 74 73 73 72 73 73 72 72 72 72 71 71 71 71 71 71 71 70 70 70 69 68
67 64 60 57 52 49 50 53 53 53 54 55 57 57 61 64 63 65 65 65 67 67 66 72 73 73 73 73 73 72 72 73 72 72 71 71 72 72 72 71 71 71 71 71 70 70 70 69 69
63 59 56 56 45 47 50 52 52 53 53 53 56 58 61 63 64 65 64 65 65 65 67 70 73 74 73 73 73 72 72 73 72 72 71 71 71 71 72 72 71 71 70 70 70 70 70 70 70
63 60 53 48 43 46 49 50 52 52 53 55 58 59 62 64 63 64 64 63 65 66 63 70 73 73 73 72 72 73 73 73 72 72 72 71 71 72 72 72 71 70 70 70 70 70 70 70 70
59 55 52 41 39 44 48 50 51 50 52 54 57 59 62 63 63 63 63 64 64 61 62 67 69 71 72 73 72 72 72 73 73 72 72 71 71 71 71 71 71 70 70 70 70 70 70 71 70
57 54 46 45 47 41 44 47 49 49 53 56 58 58 60 63 62 62 63 63 63 60 60 63 65 67 68 70 72 72 72 73 73 73 72 72 71 71 70 71 71 70 70 70 70 70 69 70 71
56 52 46 38 41 42 44 43 48 52 53 54 55 59 61 63 62 62 62 63 62 59 59 59 62 65 66 67 70 72 72 72 72 71 72 71 71 70 70 71 70 70 70 70 71 70 70 70 70
52 55 52 40 38 44 45 42 46 49 50 53 54 60 62 62 61 61 62 62 61 58 57 58 60 62 64 62 68 67 66 65 66 67 68 72 70 68 67 68 70 71 67 69 69 68 69 70 64
48 52 54 40 40 44 44 44 44 45 47 51 56 59 60 61 60 60 62 62 61 58 57 58 60 62 62 62 63 63 62 62 64 67 69 70 67 68 68 66 65 67 65 66 70 69 67 58 59
45 46 49 40 40 41 43 45 45 44 43 52 56 59 60 60 59 60 61 62 61 59 57 58 60 62 61 62 61 61 60 61 61 64 69 69 68 66 71 69 66 65 65 67 69 67 65 68 65
44 44 43 43 40 38 42 44 47 47 46 50 56 59 59 59 59 59 59 60 61 59 58 58 61 64 64 64 61 60 60 60 59 63 67 66 69 67 68 67 67 67 68 68 66 65 65 64 65
42 43 42 41 39 37 35 42 45 48 49 52 55 57 58 58 58 59 58 58 59 59 58 59 61 64 65 65 64 62 61 61 60 60 63 69 67 67 67 66 67 66 70 69 66 66 67 67 63
41 35 40 40 36 31 33 36 42 47 51 52 54 56 57 58 58 57 58 58 58 59 59 60 62 65 66 66 66 65 62 61 61 60 63 67 68 69 70 67 67 68 70 68 68 67 68 63 59
38 37 31 32 31 30 31 31 37 44 50 52 53 53 55 56 57 58 58 58 58 59 60 61 62 63 66 66 67 66 63 62 61 60 62 66 68 70 70 68 65 69 68 64 67 62 60 61 55
26 27 29 28 30 29 29 29 35 42 46 50 53 53 53 55 56 58 58 58 59 60 61 62 62 62 65 67 67 66 65 63 61 59 60 67 68 69 71 70 69 69 68 65 62 64 61 56 55
23 23 26 28 30 28 28 29 34 38 44 47 52 53 53 53 55 57 57 58 59 60 61 63 63 65 68 67 69 66 64 63 62 59 59 68 68 69 70 69 69 67 68 67 68 65 60 60 56
26 22 23 27 29 29 29 30 31 36 41 44 50 52 53 53 54 55 57 58 58 59 61 65 66 68 68 67 66 65 63 63 61 60 62 64 67 69 70 69 70 68 69 67 66 66 64 60 57
27 22 21 24 27 29 29 29 29 32 38 42 47 50 52 53 54 54 56 56 57 60 63 67 68 70 70 68 67 65 64 60 60 60 64 65 68 69 70 70 70 69 69 68 69 67 65 57 54
18 20 20 20 25 27 27 27 28 30 34 42 45 50 51 53 54 55 55 56 57 60 64 67 70 71 71 69 69 68 65 63 60 60 62 66 69 69 72 71 68 69 70 70 70 67 63 58 54
10 15 18 19 20 22 25 23 26 28 29 40 43 48 50 52 54 56 55 56 56 59 63 67 71 71 72 72 67 67 63 60 59 61 60 65 70 69 70 69 68 70 68 70 70 68 66 65 55
11 12 13 17 18 19 20 23 24 26 26 32 39 45 48 50 53 54 56 55 56 58 61 65 71 72 71 72 70 67 66 61 60 60 63 66 71 70 68 71 70 71 71 70 70 70 69 64 60
13 11 10 11 12 14 17 18 21 22 25 28 34 38 44 47 51 54 56 56 56 57 59 64 70 72 73 73 73 71 68 65 61 61 61 63 65 69 71 70 72 73 72 69 71 71 70 69 62
15 13 10 6 7 9 14 16 19 22 22 27 29 34 38 44 48 53 55 56 57 57 59 63 69 72 73 73 73 72 72 71 70 67 62 62 62 62 69 72 72 71 73 70 71 73 70 70 67
16 12 8 7 5 5 9 11 16 20 23 24 29 31 35 41 48 52 54 57 58 59 61 63 68 72 73 73 73 73 73 70 69 68 64 63 62 62 65 73 72 72 72 72 72 71 71 70 69
17 12 11 7 6 3 3 7 11 15 19 23 27 30 33 39 45 49 53 56 58 59 62 64 67 71 73 72 73 74 74 73 69 69 71 68 67 63 67 70 72 72 72 72 73 70 72 69 69
17 15 10 9 7 6 6 7 8 15 18 20 25 28 30 34 42 48 52 55 58 59 62 64 66 70 72 71 73 73 74 74 73 72 72 70 69 70 69 69 70 72 72 72 73 70 71 71 68
15 16 14 10 7 6 9 7 9 13 18 21 24 26 28 29 38 46 51 54 57 59 60 63 66 68 71 71 72 72 73 73 74 72 73 73 72 72 71 72 71 72 72 72 73 72 70 71 71
16 15 18 13 13 7 8 10 13 13 14 20 23 26 26 30 35 45 50 51 54 57 59 61 64 65 70 71 71 72 72 73 73 74 72 74 73 73 73 73 73 72 72 72 73 73 67 71 71
Wind_Speed
18 17 9 3 4 6 7 7 7 9 9 10 9 12 20 19 10 14 23 15 21 13 10 14 11 14 15 16 16 16 15 14 14 13 13 12 13 13 12 12 12 11 10 10 9 8 7 7 7
16 12 8 6 4 3 7 6 9 10 19 13 12 12 14 10 14 24 26 29 23 17 17 18 12 14 16 16 16 15 15 14 13 13 11 12 13 11 11 11 10 10 10 9 8 7 6 6 5
16 14 5 4 6 3 9 10 14 14 13 7 12 12 8 7 23 24 33 31 26 22 18 20 15 15 16 16 16 15 14 13 12 12 11 12 10 9 10 11 10 10 9 8 8 7 6 5 5
13 7 7 4 16 17 16 5 15 10 6 7 15 13 11 15 26 21 34 34 27 22 22 20 17 17 17 16 15 15 13 12 11 11 11 11 9 9 10 9 9 9 8 9 8 8 7 7 7
17 10 10 8 9 13 15 12 9 6 7 8 15 11 16 20 19 35 31 28 28 22 22 21 18 18 17 16 15 14 13 12 11 10 10 10 9 8 8 8 9 8 8 8 8 7 8 8 8
7 6 7 8 14 14 12 10 11 8 7 8 19 18 11 18 29 31 28 29 24 23 25 23 19 18 17 15 14 13 12 11 10 9 9 9 8 7 8 8 8 7 7 7 7 7 8 8 9
24 8 19 4 15 14 11 5 4 13 9 10 14 15 16 25 29 28 26 21 23 25 25 23 21 18 16 14 13 12 11 10 9 9 8 8 8 7 7 7 7 6 6 5 5 4 4 6 7
18 9 14 19 2 22 8 11 7 11 16 15 21 12 26 29 29 28 26 23 23 24 25 23 22 20 17 15 13 11 10 9 8 7 7 8 9 9 8 8 7 5 4 4 4 2 4 6 10
14 13 9 5 11 14 10 14 11 12 15 10 4 24 30 30 29 27 24 21 21 22 24 24 22 20 17 15 14 11 9 8 8 9 11 11 6 9 15 10 6 4 1 1 2 6 7 9 10
18 10 10 8 6 12 10 17 10 13 13 12 19 31 31 31 28 28 24 23 21 23 26 24 22 20 18 16 14 12 12 12 12 12 10 15 8 9 6 10 7 7 5 8 8 6 9 13 12
19 11 33 6 9 1 13 17 9 15 12 15 21 30 33 31 30 29 25 24 23 25 23 23 22 19 17 15 14 12 11 11 6 3 4 8 8 4 4 7 10 9 11 7 10 8 5 11 13
18 11 22 9 7 1 8 17 14 5 15 19 22 29 33 31 29 32 28 27 24 21 22 22 22 18 17 13 14 13 11 8 9 9 3 2 5 1 15 10 10 4 5 3 10 5 14 15 11
20 18 11 4 5 5 2 7 6 9 15 22 24 28 30 29 29 27 28 29 27 25 23 22 20 17 14 10 13 10 8 9 9 8 8 8 8 5 11 3 3 5 9 4 5 6 2 5 1
16 19 12 11 12 10 11 9 9 13 15 22 26 28 29 29 29 28 27 27 27 26 24 22 21 19 15 14 9 9 9 9 7 9 9 5 6 3 2 1 8 3 12 6 4 3 4 13 3
22 9 18 16 14 10 10 13 16 19 19 22 25 27 29 29 28 28 27 26 26 25 24 23 22 21 19 17 13 12 11 11 10 8 7 6 6 5 3 1 5 4 7 1 3 0 7 9 11
22 22 22 23 21 17 13 19 20 18 21 23 25 26 29 30 29 26 26 25 25 24 24 22 22 23 21 18 16 14 13 12 10 10 10 9 8 4 4 4 3 6 3 1 3 1 2 8 1
21 25 27 24 26 19 18 18 23 21 21 23 24 25 27 29 29 29 28 26 27 25 25 24 23 23 22 18 16 15 13 12 11 10 10 13 10 8 7 11 10 1 6 3 2 5 2 4 6
27 29 26 27 21 21 22 22 17 22 22 21 24 25 27 29 32 30 29 28 26 26 25 24 23 19 19 18 15 15 15 14 13 12 12 14 11 10 8 6 7 2 2 3 9 7 4 5 5
27 25 27 27 20 25 23 24 21 18 17 21 25 26 28 28 29 29 29 29 27 28 27 25 24 21 19 20 20 18 18 16 15 13 11 11 11 11 9 8 8 6 5 3 3 6 6 4 3
32 30 28 26 16 16 20 21 19 17 22 20 26 27 28 28 29 29 30 30 30 29 27 25 24 21 21 20 17 16 15 15 15 14 12 13 14 12 11 9 3 7 7 7 3 4 9 2 5
35 34 29 24 25 20 20 22 22 19 17 17 24 26 28 30 31 32 33 33 31 31 28 28 25 23 23 20 17 14 13 12 15 15 15 15 15 14 12 10 10 7 8 12 8 6 6 3 5
35 32 28 23 25 27 29 27 26 23 20 22 24 27 27 29 30 32 33 33 34 31 30 27 26 25 23 22 21 20 19 19 17 16 16 17 17 15 13 12 11 10 11 13 6 7 5 4 8
31 24 31 28 28 26 29 27 25 34 33 28 26 27 27 30 31 33 34 35 34 32 31 28 28 26 24 25 23 22 20 19 17 17 16 16 16 15 15 15 13 12 11 9 9 5 7 6 7
25 19 23 28 28 36 33 31 30 27 23 30 29 29 30 28 32 32 33 32 31 31 31 28 27 27 26 25 27 21 23 20 19 19 17 18 17 17 16 16 13 14 12 8 10 9 8 9 6
22 25 21 26 32 34 32 36 30 25 26 25 27 31 29 27 29 32 32 33 32 31 31 29 30 30 30 27 26 25 22 23 17 17 19 18 18 17 20 19 14 17 13 11 11 11 9 10 9
32 33 26 27 28 27 32 39 38 33 21 23 27 26 27 27 29 33 34 33 32 32 32 30 31 30 29 30 29 28 24 23 24 20 19 20 18 18 13 21 18 17 16 16 13 12 12 11 12
28 38 34 29 29 23 29 34 29 26 34 25 18 28 29 29 28 31 34 35 33 33 34 35 33 34 33 33 29 29 28 27 24 24 23 18 19 17 15 18 18 18 17 16 15 15 15 11 13
33 34 33 28 23 22 20 18 28 26 18 36 33 22 30 27 29 31 33 36 35 36 35 35 35 37 38 35 33 31 30 29 27 23 22 24 19 19 13 18 17 19 18 18 17 16 14 14 14
38 33 35 28 28 20 17 17 19 25 25 24 25 35 26 25 28 28 32 34 35 34 34 36 35 33 33 35 33 33 32 30 28 27 25 25 22 19 21 18 20 20 20 20 19 18 15 18 16
35 37 36 29 33 27 18 3 9 7 8 23 25 23 29 27 25 26 30 30 33 35 35 36 36 37 36 33 33 33 31 31 31 30 29 25 26 24 22 21 21 21 22 21 22 22 20 19 20
Wind_Direction
170 178 151 205 239 219 248 176 118 78 75 103 74 83 89 48 23 125 159 159 158 166 178 161 149 143 136 130 125 124 119 112 108 102 98 98 90 82 84 86 84 83 86 86 91 93 94 95 90
176 176 202 243 247 206 102 62 80 102 95 100 93 117 76 69 87 121 129 156 157 167 180 150 145 141 132 131 129 124 120 116 108 105 101 89 84 86 85 92 89 88 86 86 94 99 103 104 102
180 207 274 253 252 41 105 136 110 107 117 104 95 75 64 87 128 134 146 155 156 178 186 136 148 141 133 133 129 126 122 114 109 107 99 91 89 85 74 82 83 82 84 90 90 93 95 95 92
179 203 245 254 264 121 100 164 108 114 115 91 117 80 83 127 138 138 145 153 157 173 156 140 151 146 140 137 132 128 125 121 115 110 108 104 94 82 77 79 82 83 81 81 80 73 75 73 88
233 253 254 255 103 91 105 107 110 124 129 138 104 105 112 137 134 140 149 152 158 145 140 149 155 145 141 139 135 133 132 127 122 118 115 109 101 90 79 81 81 79 80 78 79 77 72 70 82
233 255 280 268 91 89 93 125 149 101 96 81 105 115 129 137 145 148 151 150 145 166 147 140 144 140 141 142 139 137 138 132 131 126 120 111 106 96 84 80 79 84 81 82 79 75 78 85 93
260 281 237 141 111 87 98 106 50 110 120 111 131 118 131 145 151 149 150 145 153 157 144 149 149 145 145 143 141 145 144 142 139 131 126 122 116 106 98 95 88 91 91 90 87 87 102 118 108
267 258 268 59 35 104 114 80 76 113 75 112 136 138 148 149 156 152 152 153 161 162 144 153 151 157 158 153 148 150 150 148 145 144 153 162 160 155 150 144 111 103 91 92 96 133 181 169 148
264 274 280 170 66 121 148 109 72 93 128 129 82 136 141 154 158 155 149 153 175 154 159 162 160 159 155 154 151 155 157 159 163 175 206 193 208 172 150 99 119 144 138 139 172 215 190 183 192
238 48 286 67 89 119 116 101 119 134 137 117 111 119 142 157 161 154 154 157 181 159 167 166 162 161 161 163 152 170 169 178 192 190 212 170 195 134 103 129 158 174 208 216 212 344 284 224 188
228 160 263 109 47 353 141 118 139 123 156 140 136 146 154 157 170 157 161 162 181 168 171 167 160 165 170 154 171 178 176 176 179 201 238 223 93 175 180 163 178 187 205 235 55 240 303 25 14
244 179 266 122 115 48 153 128 128 169 124 135 144 155 157 166 175 160 170 174 185 179 175 173 161 171 180 163 182 185 183 190 185 182 224 230 24 312 95 235 190 204 191 124 144 240 66 28 351
232 266 218 244 213 199 6 150 138 125 133 136 148 159 165 172 173 177 175 171 178 183 178 176 167 172 181 198 192 205 202 201 188 151 179 271 176 117 76 257 70 126 106 320 25 55 47 97 263
218 239 244 227 221 201 206 172 201 152 150 147 156 166 171 177 178 178 182 176 183 181 180 176 175 177 195 201 216 219 203 185 231 180 165 206 270 141 193 154 190 152 92 108 12 354 101 325 91
241 237 231 235 229 223 218 200 200 157 160 161 165 170 174 182 182 181 184 182 184 180 181 178 183 181 194 199 204 213 205 227 197 216 153 200 216 163 357 241 6 317 96 177 191 331 259 210 139
223 237 229 217 214 213 213 208 196 172 173 173 173 175 177 183 183 183 186 186 184 182 182 188 191 183 189 195 195 213 224 212 215 200 177 196 203 240 199 230 232 50 67 231 58 16 295 160 202
217 224 221 222 206 208 207 240 171 173 175 181 181 179 181 183 187 185 187 188 183 187 183 191 194 189 189 198 202 209 214 222 214 211 199 176 202 207 245 200 359 194 208 162 214 276 263 112 171
215 215 222 221 186 208 197 229 165 175 178 187 186 184 186 188 191 185 190 188 189 187 185 191 195 199 189 193 208 206 216 210 222 210 209 161 202 207 224 224 179 246 257 123 63 341 32 341 14
237 222 227 210 188 196 225 205 220 171 194 190 185 192 191 191 188 186 191 186 189 187 190 191 197 193 191 198 200 209 210 203 210 216 208 196 214 203 212 246 181 228 159 114 206 205 170 244 105
231 241 226 229 222 205 213 229 232 209 185 201 189 194 194 192 184 190 190 190 192 191 190 189 196 191 196 200 206 210 211 209 208 211 199 212 210 216 223 228 216 213 188 149 198 279 291 112 187
228 229 233 231 223 213 232 242 230 218 188 196 200 194 198 195 189 187 190 195 193 192 189 190 192 193 194 209 201 207 215 232 203 214 206 205 216 218 222 210 233 169 269 154 173 204 269 141 182
221 222 238 235 238 224 210 238 221 231 206 192 204 194 198 200 196 185 192 195 195 195 191 191 189 196 195 204 202 203 206 207 214 210 212 203 203 219 210 211 203 204 213 133 166 205 268 268 179
226 223 219 235 242 247 244 233 239 206 214 198 204 199 201 194 197 190 193 194 197 191 191 192 188 193 197 194 220 198 213 212 210 216 213 207 181 208 215 193 206 204 224 156 169 199 223 186 274
220 227 233 220 232 237 233 236 236 233 215 195 198 205 198 201 193 196 193 192 196 192 193 190 188 193 198 194 206 210 201 223 211 208 207 206 214 196 218 211 196 215 216 215 187 200 199 244 217
203 208 207 218 220 232 222 231 233 232 223 217 207 202 200 195 198 195 195 191 192 192 191 190 188 194 196 199 200 214 207 207 226 207 214 206 212 216 193 204 198 209 209 214 211 186 208 207 222
202 207 210 210 219 227 225 227 232 235 244 229 203 208 197 192 197 192 197 194 191 192 188 191 188 193 197 200 203 203 209 208 215 213 215 215 216 216 211 186 197 211 202 210 201 210 213 203 209
197 213 217 231 214 236 220 220 239 232 220 220 221 204 203 184 193 197 194 197 193 193 191 190 190 192 195 199 201 205 206 212 212 217 213 216 218 227 197 184 195 208 214 204 207 220 196 215 203
224 206 214 234 248 220 237 233 210 204 229 208 210 213 211 199 189 193 196 197 195 198 193 193 196 194 196 197 199 202 205 207 215 213 217 214 221 218 212 193 199 207 209 211 207 210 214 202 203
208 214 215 227 230 235 240 242 221 202 200 216 214 208 210 204 184 192 193 198 198 197 199 197 200 199 198 199 199 203 205 207 209 216 212 218 212 213 218 197 199 203 208 208 208 223 215 199 208
209 213 202 220 218 234 262 39 52 113 215 193 210 207 212 207 190 190 191 197 197 200 201 201 202 203 203 202 202 203 204 206 208 212 215 210 216 213 206 212 200 204 208 210 210 212 221 204 208